FW5449 Weather Reports


time (UTC)temp
F
wind
direction
speed
knots
gust
knots
rain 1hr
in
rain 24hr
in
rain mn
in
humidity
%
barometer
mb
20260906220602 65 266 2.6 6.1 0.00 0.42 0.42 76 1017.3
20260906220100 64 281 2.6 7.0 0.00 0.42 0.42 78 1017.2
20260906215600 64 328 2.6 7.0 0.00 0.42 0.42 79 1017.3
20260906215057 64 303 2.6 7.0 0.00 0.42 0.42 79 1017.3
20260906214558 64 258 2.6 5.2 0.00 0.42 0.42 80 1017.2
20260906214314 63 274 2.6 4.3 0.00 0.42 0.42 80 1017.3
20260906213559 63 261 2.6 6.1 0.00 0.42 0.42 79 1017.4
20260906213058 63 306 3.5 7.0 0.00 0.42 0.42 79 1017.3
20260906212557 64 286 3.5 7.0 0.00 0.42 0.42 79 1017.4
20260906212318 64 299 2.6 7.0 0.00 0.42 0.42 80 1017.3
20260906211556 64 328 2.6 7.0 0.00 0.42 0.42 81 1017.2
20260906211052 64 295 3.5 7.0 0.00 0.42 0.42 80 1017.1
20260906210549 64 249 2.6 7.0 0.00 0.42 0.42 80 1017.1
20260906210051 64 255 1.7 4.3 0.00 0.42 0.42 81 1017.1
20260906205551 64 307 2.6 7.0 0.00 0.42 0.42 80 1017.1
20260906205051 64 249 2.6 7.0 0.00 0.42 0.42 80 1017.1
20260906204552 64 286 2.6 7.0 0.00 0.42 0.42 81 1017.2
20260906204313 64 286 2.6 7.0 0.00 0.42 0.42 81 1017.2
20260906203815 64 245 2.6 6.1 0.00 0.42 0.42 80 1017.0
20260906203051 64 248 3.5 7.0 0.00 0.42 0.42 80 1017.0
20260906202549 64 249 3.5 7.0 0.00 0.42 0.42 80 1016.9
20260906202047 64 237 2.6 7.0 0.00 0.42 0.42 83 1016.8
20260906201549 64 241 2.6 6.1 0.00 0.42 0.42 83 1016.8
20260906201312 64 249 1.7 6.1 0.00 0.42 0.42 85 1016.7
20260906200548 63 201 2.6 4.3 0.01 0.42 0.42 86 1016.7
20260906200047 63 264 1.7 5.2 0.01 0.42 0.42 86 1016.7
20260906195547 62 223 2.6 5.2 0.01 0.42 0.42 86 1016.8
20260906195047 62 241 2.6 5.2 0.01 0.42 0.42 87 1016.8
20260906194542 62 149 1.7 5.2 0.01 0.42 0.42 88 1016.8
20260906194040 61 210 0.9 3.5 0.01 0.42 0.42 90 1016.9
20260906193800 61 251 0.9 3.5 0.01 0.42 0.42 90 1016.8
20260906193038 60 286 0.9 3.5 0.02 0.42 0.42 89 1016.9
20260906192538 60 255 0.9 3.5 0.02 0.42 0.42 90 1017.0
20260906192038 60 295 1.7 3.5 0.02 0.42 0.42 89 1017.0
20260906191537 60 272 1.7 3.5 0.03 0.42 0.42 89 1017.0
20260906191033 60 228 1.7 4.3 0.03 0.42 0.42 89 1016.9
20260906190532 60 272 1.7 4.3 0.02 0.41 0.41 89 1017.0
20260906190035 60 238 1.7 6.1 0.02 0.41 0.41 90 1017.0
20260906185533 60 251 2.6 6.1 0.02 0.41 0.41 90 1016.9
20260906185031 60 245 2.6 5.2 0.02 0.41 0.41 90 1016.9
20260906184532 60 291 2.6 5.2 0.02 0.41 0.41 90 1017.0
20260906184029 60 270 2.6 5.2 0.02 0.41 0.41 90 1017.0
20260906183528 60 238 2.6 5.2 0.02 0.41 0.41 90 1016.9
20260906183030 60 260 2.6 5.2 0.01 0.40 0.40 90 1016.8
20260906182530 60 301 1.7 5.2 0.01 0.40 0.40 89 1016.9
20260906182025 59 182 1.7 5.2 0.01 0.40 0.40 89 1016.8
20260906181524 59 177 1.7 3.5 0.00 0.39 0.39 88 1016.8
20260906181021 59 149 0.9 3.5 0.01 0.39 0.39 89 1016.9
20260906180739 59 159 1.7 3.5 0.01 0.39 0.39 89 1016.8
20260906180018 59 186 1.7 5.2 0.01 0.39 0.39 89 1016.7
20260906175513 59 153 1.7 5.2 0.01 0.39 0.39 89 1016.7
20260906175014 59 135 2.6 4.3 0.01 0.39 0.39 90 1016.5
20260906174504 59 125 1.7 3.5 0.01 0.39 0.39 90 1016.5
20260906174004 58 154 1.7 3.5 0.01 0.39 0.39 91 1016.5
20260906173502 58 154 1.7 3.5 0.01 0.39 0.39 92 1016.5
20260906173228 58 137 0.9 3.5 0.01 0.39 0.39 92 1016.5
20260906172947 58 175 0.9 3.5 0.01 0.39 0.39 92 1016.5
20260906171956 58 101 0.0 1.7 0.02 0.39 0.39 93 1016.4
20260906171454 57 245 0.0 1.7 0.02 0.39 0.39 93 1016.4
20260906170950 57 245 0.0 1.7 0.01 0.38 0.39 93 1016.5
20260906170452 57 245 0.0 1.7 0.02 0.38 0.38 93 1016.4
20260906165939 57 245 0.0 1.7 0.02 0.38 0.38 93 1016.4
20260906165433 57 245 0.0 0.9 0.02 0.38 0.38 93 1016.4
20260906165423 57 245 0.9 2.6 0.03 0.38 0.38 93 1016.3
20260906164435 56 246 0.9 2.6 0.03 0.38 0.38 93 1016.4
20260906163929 56 195 0.0 2.6 0.04 0.38 0.38 93 1016.2
20260906163427 56 170 0.0 0.9 0.05 0.38 0.38 93 1016.2
20260906162925 56 170 0.0 0.9 0.06 0.38 0.38 93 1016.0
20260906162413 56 172 0.0 0.9 0.07 0.38 0.38 93 1016.1
20260906161909 56 172 0.0 0.9 0.07 0.37 0.37 93 1016.1
20260906161620 56 172 0.0 2.6 0.09 0.37 0.37 93 1016.1
20260906160849 56 172 0.9 2.6 0.10 0.37 0.37 93 1016.0
20260906160339 56 166 0.9 2.6 0.10 0.36 0.36 93 1015.9
20260906155832 56 151 0.9 3.5 0.10 0.36 0.36 93 1015.9
20260906155330 56 157 0.9 3.5 0.11 0.36 0.36 93 1015.9
20260906154831 56 186 1.7 3.5 0.10 0.35 0.35 93 1016.0
20260906154325 56 160 1.7 3.5 0.10 0.34 0.35 93 1016.0
20260906154041 56 159 0.9 2.6 0.10 0.34 0.34 92 1016.0
20260906153633 56 178 0.9 2.6 0.10 0.33 0.33 92 1016.0
20260906153545 56 178 0.9 3.5 0.09 0.32 0.32 92 1016.0
20260906152307 56 201 1.7 3.5 0.08 0.31 0.31 92 1016.0
20260906151810 56 185 1.7 3.5 0.08 0.30 0.30 92 1015.9
20260906151255 56 187 1.7 3.5 0.06 0.28 0.28 92 1015.9
20260906150751 56 167 0.9 2.6 0.05 0.27 0.27 92 1016.0
20260906150250 56 297 0.0 0.9 0.04 0.26 0.26 92 1015.9
20260906145752 56 297 0.0 0.9 0.03 0.25 0.25 92 1015.9
20260906145252 56 297 0.0 1.7 0.03 0.25 0.25 92 1015.9
20260906144955 56 297 0.0 1.7 0.02 0.24 0.25 92 1016.0
20260906144239 56 297 0.9 2.6 0.02 0.24 0.24 92 1015.9
20260906143731 56 297 0.9 4.3 0.02 0.24 0.24 92 1016.0
20260906143231 56 274 1.7 4.3 0.01 0.23 0.23 91 1016.0
20260906142726 56 347 2.6 6.1 0.01 0.23 0.23 91 1015.9
20260906142228 56 308 3.5 7.8 0.01 0.23 0.23 91 1015.9
20260906141718 56 266 2.6 7.8 0.03 0.22 0.22 91 1015.9
20260906141216 56 318 1.7 4.3 0.08 0.22 0.22 91 1016.0
20260906140718 56 286 1.7 4.3 0.22 0.22 0.22 91 1015.9
20260906140216 56 286 1.7 4.3 0.22 0.22 0.22 91 1015.8
20260906135708 56 243 3.5 7.0 0.22 0.22 0.22 91 1015.7
20260906135207 56 229 4.3 7.8 0.22 0.22 0.22 90 1015.6
20260906134707 56 247 3.5 7.8 0.22 0.22 0.22 90 1015.5
20260906134203 56 265 1.7 7.0 0.22 0.22 0.22 90 1015.5
20260906133928 56 276 2.6 7.8 0.22 0.22 0.22 90 1015.5
20260906133201 56 262 3.5 7.8 0.22 0.22 0.22 90 1015.3
20260906132701 56 277 3.5 7.8 0.22 0.22 0.22 90 1015.1
20260906132202 56 235 4.3 8.7 0.22 0.22 0.22 90 1015.1
20260906131700 57 181 5.2 8.7 0.18 0.18 0.19 89 1015.0
20260906131159 57 183 4.3 7.8 0.14 0.14 0.14 89 1014.9
20260906130659 57 194 3.5 7.0 0.00 0.00 0.00 89 1014.9
20260906130422 57 210 2.6 6.1 0.00 0.00 0.00 89 1014.8
20260906125659 57 199 2.6 6.1 0.00 0.00 0.00 89 1014.8
20260906125410 57 237 3.5 6.1 0.00 0.00 0.00 89 1014.8
20260906124649 57 248 3.5 7.0 0.00 0.00 0.00 89 1014.9
20260906124147 57 250 3.5 7.0 0.00 0.00 0.00 88 1014.9
20260906123855 57 247 3.5 8.7 0.00 0.00 0.00 89 1015.0
20260906123124 57 247 3.5 8.7 0.00 0.00 0.00 89 1015.0
20260906122837 57 196 2.6 7.0 0.00 0.00 0.00 89 1014.9
20260906122100 57 236 2.6 3.5 0.00 0.00 0.00 89 1014.9
20260906121601 57 251 0.9 3.5 0.00 0.01 0.00 89 1014.8
20260906121324 56 244 0.9 2.6 0.00 0.01 0.00 89 1014.9
20260906120554 56 231 0.9 2.6 0.00 0.01 0.00 89 1014.9
20260906120316 57 235 0.9 2.6 0.00 0.01 0.00 88 1014.7
20260906115553 57 202 0.9 2.6 0.00 0.01 0.00 88 1014.7
20260906115051 57 210 0.9 2.6 0.00 0.01 0.00 89 1014.7
20260906114545 57 210 0.9 2.6 0.00 0.02 0.00 89 1014.8
20260906114042 57 193 0.9 2.6 0.00 0.02 0.00 89 1014.7
20260906113543 57 169 0.9 2.6 0.00 0.02 0.00 89 1014.7
20260906113037 57 169 1.7 3.5 0.00 0.02 0.00 89 1014.9
20260906112758 57 169 1.7 3.5 0.00 0.02 0.00 89 1014.8
20260906112306 57 166 1.7 3.5 0.00 0.02 0.00 89 1014.7
20260906111535 57 185 1.7 3.5 0.00 0.02 0.00 89 1014.7
20260906111031 57 192 1.7 3.5 0.00 0.02 0.00 89 1014.8
20260906110757 57 216 2.6 3.5 0.00 0.02 0.00 89 1014.8
20260906110029 57 207 2.6 3.5 0.00 0.02 0.00 89 1014.8
20260906105528 57 195 1.7 3.5 0.00 0.02 0.00 89 1014.9
20260906105029 57 196 0.9 2.6 0.00 0.02 0.00 89 1014.8
20260906105021 57 198 0.9 2.6 0.00 0.02 0.00 89 1014.8
20260906104030 57 168 1.7 4.3 0.00 0.02 0.00 88 1014.8
20260906103523 57 168 2.6 4.3 0.00 0.02 0.00 88 1014.8
20260906103014 57 161 1.7 3.5 0.00 0.02 0.00 88 1014.8
20260906102514 57 189 0.0 2.6 0.00 0.02 0.00 88 1014.8
20260906102010 57 239 0.0 0.9 0.00 0.02 0.00 88 1014.9
20260906101500 57 239 0.0 1.7 0.00 0.02 0.00 88 1014.8
20260906100948 57 239 1.7 3.5 0.00 0.02 0.00 88 1014.9
20260906100444 57 239 1.7 3.5 0.00 0.02 0.00 88 1014.9
20260906100207 57 239 0.9 2.6 0.00 0.02 0.00 88 1014.9
20260906095441 57 175 0.0 1.7 0.00 0.02 0.00 88 1014.9
20260906094941 57 175 0.0 1.7 0.00 0.02 0.00 88 1014.8
20260906094436 57 175 0.0 0.0 0.00 0.02 0.00 88 1014.8
20260906093933 57 175 0.0 0.0 0.00 0.02 0.00 88 1014.9
20260906093431 57 175 0.0 0.9 0.00 0.02 0.00 88 1014.8
20260906093359 57 175 0.0 1.7 0.00 0.02 0.00 88 1014.8
20260906092352 57 175 0.0 1.7 0.00 0.02 0.00 88 1014.7
20260906091829 57 175 0.9 2.6 0.00 0.02 0.00 88 1014.7
20260906091325 57 175 0.9 2.6 0.00 0.02 0.00 88 1014.7
20260906090822 57 175 0.9 2.6 0.00 0.02 0.00 87 1014.8
20260906090321 58 241 0.9 1.7 0.00 0.02 0.00 87 1014.8
20260906085815 58 241 0.0 1.7 0.00 0.02 0.00 87 1014.7
20260906085310 58 241 0.0 1.7 0.00 0.02 0.00 87 1014.8
20260906085026 58 241 0.0 1.7 0.00 0.02 0.00 87 1014.8
20260906084504 58 241 0.0 0.9 0.00 0.02 0.00 87 1014.9
20260906083739 58 241 0.0 0.9 0.00 0.02 0.00 87 1014.9
20260906083216 58 241 0.9 2.6 0.00 0.02 0.00 87 1014.8
20260906082709 58 241 0.9 2.6 0.00 0.02 0.00 87 1014.9
20260906082430 58 241 0.9 2.6 0.00 0.02 0.00 87 1014.9
20260906081655 58 241 0.0 2.6 0.00 0.02 0.00 87 1014.8
20260906081155 58 241 0.0 1.7 0.00 0.02 0.00 87 1014.9
20260906080919 58 241 0.0 2.6 0.00 0.02 0.00 87 1014.8
20260906080155 58 241 0.0 2.6 0.00 0.02 0.00 87 1014.9
20260906075641 58 241 0.0 0.9 0.00 0.02 0.00 87 1015.0
20260906075355 58 241 0.0 1.7 0.00 0.02 0.00 87 1014.8
20260906074820 58 241 0.0 1.7 0.00 0.02 0.00 87 1014.9
20260906074050 58 241 0.0 0.9 0.00 0.02 0.00 87 1014.8
20260906073543 58 241 0.9 2.6 0.00 0.02 0.00 87 1014.8
20260906073042 58 241 1.7 3.5 0.00 0.02 0.00 87 1014.8
20260906072545 58 252 0.9 2.6 0.00 0.02 0.00 87 1014.8
20260906072026 58 252 1.7 3.5 0.00 0.02 0.00 87 1014.8
20260906071528 58 244 1.7 3.5 0.00 0.02 0.00 86 1014.7
20260906071023 58 257 1.7 3.5 0.00 0.02 0.00 86 1014.7
20260906070522 59 266 0.9 3.5 0.00 0.02 0.00 86 1014.6
20260906070022 59 270 0.9 2.6 0.00 0.02 0.00 86 1014.6
20260906065520 59 270 0.9 2.6 0.00 0.02 0.02 86 1014.6
20260906065016 59 270 0.9 2.6 0.00 0.02 0.02 86 1014.7
20260906064511 59 270 0.9 2.6 0.00 0.02 0.02 85 1014.7
20260906064008 59 270 0.9 2.6 0.00 0.02 0.02 85 1014.7
20260906063502 59 197 0.0 2.6 0.00 0.02 0.02 85 1014.8
20260906063002 59 197 0.0 0.9 0.00 0.02 0.02 85 1014.8
20260906062455 59 197 0.0 1.7 0.00 0.02 0.02 85 1014.8
20260906062200 59 197 0.0 2.6 0.00 0.02 0.02 85 1014.8
20260906061440 60 197 0.9 2.6 0.00 0.02 0.02 85 1014.9
20260906060940 60 197 0.9 2.6 0.00 0.02 0.02 85 1014.9
20260906060440 60 197 0.9 2.6 0.00 0.02 0.02 84 1014.9
20260906055938 60 206 0.9 2.6 0.00 0.02 0.02 84 1014.9
20260906055439 60 211 0.0 1.7 0.00 0.02 0.02 84 1014.8
20260906054940 60 339 0.0 0.0 0.00 0.02 0.02 84 1014.8
20260906054436 60 339 0.0 0.0 0.00 0.02 0.02 83 1014.9
20260906053934 60 339 0.0 0.0 0.00 0.02 0.02 82 1014.9
20260906053433 61 339 0.0 0.0 0.00 0.02 0.02 81 1014.9
20260906052937 61 339 0.0 0.0 0.00 0.02 0.02 81 1014.9
20260906052428 61 339 0.0 0.0 0.00 0.02 0.02 82 1015.0
20260906051926 61 339 0.0 0.0 0.00 0.02 0.02 81 1015.0
20260906051405 61 339 0.0 0.0 0.00 0.02 0.02 81 1015.0
20260906050851 61 339 0.0 0.0 0.00 0.02 0.02 81 1015.0
20260906050342 61 339 0.0 0.0 0.00 0.02 0.02 81 1015.1
20260906045845 61 339 0.0 0.0 0.00 0.02 0.02 80 1015.1
20260906045340 62 339 0.0 0.0 0.00 0.02 0.02 80 1015.0
20260906044832 62 339 0.0 0.0 0.00 0.02 0.02 80 1015.1
20260906044319 62 339 0.0 0.9 0.00 0.02 0.02 79 1015.1
20260906043809 62 339 0.0 1.7 0.00 0.02 0.02 79 1015.2
20260906043506 62 339 0.9 2.6 0.00 0.02 0.02 79 1015.2
20260906042741 62 339 1.7 2.6 0.00 0.02 0.02 79 1015.2
20260906042240 62 332 0.9 2.6 0.00 0.02 0.02 78 1015.2
20260906041741 63 316 0.9 2.6 0.00 0.02 0.02 78 1015.2
20260906041234 63 18 0.9 1.7 0.00 0.02 0.02 77 1015.1
20260906040731 63 18 0.0 1.7 0.00 0.02 0.02 77 1015.1
20260906040222 63 18 0.0 0.9 0.00 0.02 0.02 77 1015.2
20260906035714 63 18 0.0 0.9 0.00 0.02 0.02 76 1015.1
20260906035219 64 18 0.0 1.7 0.00 0.02 0.02 76 1015.1
20260906034935 64 18 0.9 2.6 0.00 0.02 0.02 76 1015.0
20260906034153 64 18 0.9 2.6 0.00 0.02 0.02 76 1015.0
20260906033653 64 18 0.9 1.7 0.00 0.02 0.02 75 1014.9
20260906033412 64 18 0.9 2.6 0.00 0.02 0.02 75 1014.9
20260906032652 64 18 0.9 4.3 0.00 0.02 0.02 75 1014.8
20260906032152 65 351 0.9 4.3 0.00 0.02 0.02 74 1014.8
20260906031640 65 343 1.7 4.3 0.00 0.02 0.02 74 1014.5
20260906031129 65 339 2.6 5.2 0.00 0.02 0.02 73 1014.6
20260906030619 65 353 2.6 7.0 0.00 0.02 0.02 72 1014.4
20260906030328 65 317 2.6 7.0 0.00 0.02 0.02 72 1014.4
20260906025601 66 337 3.5 6.1 0.00 0.02 0.02 71 1014.4
20260906025058 66 341 2.6 6.1 0.00 0.02 0.02 71 1014.4
20260906024558 66 332 2.6 6.1 0.00 0.02 0.02 71 1014.3
20260906024058 66 247 3.5 7.8 0.00 0.02 0.02 70 1014.3
20260906023557 67 349 4.3 8.7 0.00 0.02 0.02 70 1014.3
20260906023054 67 355 4.3 8.7 0.00 0.02 0.02 69 1014.3
20260906022554 67 351 3.5 8.7 0.00 0.02 0.02 69 1014.3
20260906022054 67 340 3.5 8.7 0.00 0.02 0.02 68 1014.3
20260906021551 67 16 3.5 7.8 0.00 0.02 0.02 67 1014.4
20260906021315 68 4 4.3 7.8 0.00 0.02 0.02 67 1014.4
20260906020551 68 8 3.5 7.8 0.00 0.03 0.02 66 1014.3
20260906020050 68 355 3.5 8.7 0.00 0.03 0.02 65 1014.4
20260906020041 69 353 3.5 9.6 0.00 0.03 0.02 63 1014.3
20260906015046 69 357 4.3 9.6 0.00 0.04 0.02 63 1014.5
20260906014547 69 347 4.3 9.6 0.00 0.04 0.02 62 1014.4
20260906014046 70 346 4.3 8.7 0.00 0.04 0.02 62 1014.4
20260906013550 70 324 4.3 8.7 0.00 0.04 0.02 61 1014.5
20260906013048 71 37 3.5 8.7 0.00 0.05 0.02 59 1014.4
20260906012546 71 344 4.3 7.8 0.00 0.05 0.02 59 1014.3
20260906012045 71 17 4.3 7.8 0.00 0.05 0.02 58 1014.3
20260906011543 72 8 4.3 7.8 0.00 0.05 0.02 57 1014.2
20260906011043 72 14 3.5 7.8 0.00 0.05 0.02 57 1014.1
20260906010541 72 22 2.6 6.1 0.00 0.05 0.02 55 1014.1
20260906010041 73 357 1.7 6.1 0.00 0.05 0.02 52 1014.1
20260906005541 73 340 1.7 3.5 0.00 0.05 0.02 50 1014.2
20260906005042 74 25 2.6 5.2 0.00 0.05 0.02 50 1014.2
20260906005017 74 343 3.5 7.8 0.00 0.05 0.02 50 1014.1
20260906004032 74 312 3.5 7.8 0.00 0.05 0.02 50 1014.1
20260906003533 74 357 2.6 7.8 0.00 0.05 0.02 49 1014.1
20260906003033 74 3 2.6 7.0 0.00 0.06 0.02 48 1014.2
20260906002534 75 6 4.3 7.8 0.00 0.06 0.02 49 1014.2
20260906002028 75 318 4.3 8.7 0.00 0.07 0.02 49 1014.1
20260906001527 75 298 4.3 8.7 0.00 0.07 0.02 48 1014.1
20260906001026 75 248 3.5 7.8 0.00 0.07 0.02 45 1014.1
20260906000525 75 273 3.5 7.0 0.00 0.07 0.02 46 1014.1
20260906000024 75 345 2.6 7.0 0.00 0.08 0.02 45 1014.1
20260905235520 75 232 2.6 7.0 0.00 0.08 0.02 47 1014.0
20260905235013 75 237 3.5 7.8 0.00 0.08 0.02 45 1013.9
20260905234730 75 291 3.5 7.8 0.00 0.08 0.02 47 1014.0
20260905234013 74 281 3.5 8.7 0.00 0.08 0.02 46 1014.0
20260905233511 74 328 3.5 8.7 0.00 0.09 0.02 46 1014.1
20260905233010 74 343 2.6 6.1 0.00 0.09 0.02 45 1014.1
20260905232508 74 312 3.5 7.0 0.00 0.10 0.02 48 1014.2
20260905232446 74 238 2.6 7.0 0.00 0.11 0.02 48 1014.4
20260905231500 74 249 3.5 7.0 0.00 0.13 0.02 48 1014.6
20260905230957 74 230 3.5 7.0 0.00 0.14 0.02 49 1014.6
20260905230457 75 286 2.6 7.0 0.00 0.15 0.02 48 1014.6
20260905225958 75 281 1.7 5.2 0.00 0.16 0.02 48 1014.6
20260905225455 76 328 2.6 7.8 0.00 0.16 0.02 47 1014.7
20260905224954 76 316 4.3 7.8 0.00 0.16 0.02 47 1014.7
20260905224457 76 12 4.3 7.8 0.00 0.16 0.02 46 1014.7
20260905223956 76 307 4.3 7.8 0.00 0.17 0.02 47 1014.7
20260905223453 76 305 3.5 7.8 0.00 0.17 0.02 47 1014.7
20260905223215 76 245 3.5 9.6 0.00 0.17 0.02 50 1014.8
20260905222456 76 240 4.3 10.4 0.00 0.17 0.02 48 1014.8
20260905221950 77 82 3.5 10.4 0.00 0.18 0.02 52 1014.8
20260905221450 76 241 3.5 8.7 0.00 0.19 0.02 51 1014.8
20260905220949 76 263 3.5 8.7 0.00 0.20 0.02 51 1014.7